Location: Saint Louis
(38.6270°N, 90.1980°W)
Time: 01:51:52
(UTC-05:00)

ISS - Pass Details

Date: 31 July 2013
Orbit: 402 x 403 km, 51.6° (Epoch: 25 June)

Event Time Altitude Azimuth Distance (km) Brightness Sun altitude
Rises 04:53:27 0° 305° (NW) 2,328 0.3 -12.4°
Reaches altitude 10° 04:55:32 10° 301° (WNW) 1,471 -0.7 -12.0°
Maximum altitude 04:58:46 57° 223° (SW) 491 -3.3 -11.5°
Drops below altitude 10° 05:02:03 10° 143° (SE) 1,490 -0.4 -11.0°
Sets 05:04:11 0° 139° (SE) 2,362 0.7 -10.7°
